Regional Weather Roundup
Issued by NWS

Home | Current Version | Previous Version | Graphics & Text | Print | Product List | Glossary On
Versions: 1 2 3 4 5 6 7 8 9 10 11 12 13 14 15 16 17 18 19 20 21 22 23 24 25 26 27 28 29 30 31 32 33 34 35 36 37 38 39 40 41 42 43 44 45 46 47 48 49 50
000
ASUS44 KMEG 291310
RWRTN
TENNESSEE HOURLY STATE WEATHER ROUNDUP
NATIONAL WEATHER SERVICE MEMPHIS TN
800 AM CDT WED JUL 29 2015

TNZ002-004-019-021-049-052-054-088>092-291400-
WEST TENNESSEE

CITY           SKY/WX    TMP DP  RH WIND       PRES   REMARKS
MEMPHIS INTL   CLOUDY    85  76  74 VRB5      30.04R HX  94
NWS MEMPHIS      N/A     82 N/A N/A MISG        N/A
JACKSON        PTSUNNY   80  75  84 SW3       30.04R
DYERSBURG        N/A    N/A N/A N/A MISG        N/A
PARIS          SUNNY     79  72  78 SW3       30.03S
LEXINGTON      SUNNY     75  72  88 CALM      30.03S
$$

TNZ008-025-027-028-033-062-065-066-291400-
NORTH MIDDLE TENNESSEE

CITY           SKY/WX    TMP DP  RH WIND       PRES   REMARKS
NASHVILLE      PTSUNNY   76  75  97 S5        30.04S
CLARKSVILLE    PTSUNNY   76  73  91 CALM      30.03R
SMYRNA         PTSUNNY   77  76  96 CALM      30.05S
CROSSVILLE     SUNNY     78  69  73 CALM      30.10S
$$

TNZ061-075-076-078-094-096-097-291400-
SOUTH MIDDLE TENNESSEE

CITY           SKY/WX    TMP DP  RH WIND       PRES   REMARKS
FAYETTEVILLE   SUNNY     77  72  83 CALM      30.06R
TULLAHOMA      CLOUDY    73  73 100 CALM      30.08R
WINCHESTER     CLOUDY    75  73  94 CALM      30.07R
MCMINNVILLE    CLOUDY    73  73 100 CALM      30.07R VSB 1
SHELBYVILLE    PTSUNNY   77  75  94 CALM      30.06S
$$

TNZ017-018-042-046-047-291400-
NORTHEAST TENNESSEE

CITY           SKY/WX    TMP DP  RH WIND       PRES   REMARKS
TRI CITIES     MOSUNNY   75  70  84 CALM      30.07S
ELIZABETHTON   SUNNY     73  68  83 CALM      30.07F
$$

TNZ012-013-036-069-073-074-291400-
CENTRAL EAST TENNESSEE

CITY           SKY/WX    TMP DP  RH WIND       PRES   REMARKS
KNOXVILLE      CLOUDY    78  73  84 NW5       30.05R
OAK RIDGE      SUNNY     77  73  87 E3        30.06R
GATLINBURG     MOSUNNY   77  72  83 CALM      30.06R
MORRISTOWN     MOSUNNY   77  75  94 CALM      30.08R
$$

TNZ083-085-099-291400-
SOUTHEAST TENNESSEE

CITY           SKY/WX    TMP DP  RH WIND       PRES   REMARKS
CHATTANOOGA    PTSUNNY   81  72  74 N5        30.04R
$$

SKY/WX REPORTED AS FAIR MEANS FEW OR NO CLOUDS BELOW
12 THOUSAND FEET.




USA.gov is the U.S. government's official web portal to all federal, state and local government web resources and services.